Lapse_Rate
7.0 6.7 6.7 7.0 6.9 6.9 6.7 6.6 6.8 6.9 7.1 7.2 7.2 6.9 6.8 6.6 6.3 5.7 5.6 5.8 5.5 5.5 5.4 5.3 5.3 5.2 5.1 5.1 5.1 5.2 5.4 5.6 5.9 6.0 6.0 5.9 6.0 6.0 6.0 6.0 5.9 5.8 5.8
6.5 6.9 6.7 6.9 6.8 6.8 6.8 6.7 6.7 6.8 7.0 7.1 7.0 6.7 6.5 6.3 6.0 5.7 5.8 5.8 5.5 5.4 5.3 5.1 5.0 4.9 5.0 5.0 5.3 5.5 5.6 5.7 5.9 6.3 6.5 6.6 6.5 6.4 6.3 6.2 6.0 5.9 6.1
6.5 6.5 6.6 6.7 6.7 6.8 6.9 6.6 6.5 6.6 6.9 6.9 6.8 6.6 6.5 6.2 5.7 5.6 5.6 5.6 5.5 5.2 5.1 4.9 4.8 4.8 5.0 5.2 5.4 5.7 6.0 6.0 6.1 6.2 6.2 6.2 6.4 6.4 6.6 6.5 6.4 6.3 6.3
6.7 6.3 6.5 6.6 6.7 6.8 6.9 6.6 6.5 6.6 6.7 6.8 6.7 6.6 6.3 6.0 5.9 5.9 5.6 5.4 5.2 5.1 4.9 4.8 4.9 5.1 5.2 5.5 5.8 6.1 6.2 6.3 6.2 6.0 5.8 5.8 5.8 5.9 6.2 6.6 6.6 6.5 6.4
6.7 6.4 6.5 6.7 6.7 6.8 6.8 6.7 6.7 6.7 6.7 6.8 6.8 6.6 6.4 6.3 5.9 5.7 5.5 5.2 5.1 5.0 5.0 5.1 5.1 5.2 5.5 5.8 6.1 6.2 6.1 6.1 6.0 6.0 6.0 6.0 5.9 5.7 5.7 6.1 6.3 6.5 6.6
6.8 6.6 6.6 6.6 6.6 6.7 6.8 6.8 6.8 6.7 6.8 6.8 6.6 6.4 6.2 6.0 5.8 5.5 5.2 5.1 5.1 5.1 5.1 5.2 5.2 5.3 5.7 6.1 6.2 6.1 6.0 6.0 5.9 5.9 5.8 5.7 5.6 5.6 5.6 5.7 5.8 5.8 6.1
7.0 6.7 6.6 6.7 6.6 6.8 7.0 6.8 6.8 6.7 6.6 6.5 6.3 6.2 6.1 6.0 5.6 5.3 5.2 5.3 5.2 5.1 5.2 5.2 5.3 5.7 6.0 6.1 6.1 6.0 5.8 5.8 5.7 5.7 5.6 5.5 5.4 5.3 5.3 5.3 5.6 5.6 5.6
7.2 6.6 6.7 6.7 6.7 6.9 7.0 6.9 6.8 6.6 6.4 6.2 6.0 5.9 5.9 5.7 5.5 5.3 5.3 5.3 5.2 5.3 5.3 5.4 5.6 6.0 6.1 6.1 6.0 5.8 5.8 5.7 5.6 5.5 5.4 5.3 5.3 5.3 5.0 4.6 4.5 4.9 4.7
6.8 6.8 6.9 6.7 6.8 6.8 6.9 6.8 6.7 6.5 6.2 6.0 6.0 5.9 5.7 5.6 5.5 5.4 5.4 5.4 5.4 5.4 5.4 5.5 5.8 6.1 6.0 5.9 5.8 5.7 5.7 5.6 5.5 5.5 5.4 5.4 5.2 4.9 4.5 4.2 3.8 3.5 3.6
7.1 7.1 6.9 6.7 6.7 6.7 6.6 6.6 6.4 6.1 6.0 5.9 5.9 5.7 5.7 5.6 5.5 5.5 5.5 5.4 5.4 5.4 5.6 5.7 5.9 5.9 5.9 5.9 5.7 5.6 5.5 5.5 5.4 5.4 5.5 5.2 4.9 4.6 4.2 3.9 3.7 3.5 3.2
7.5 7.4 6.6 6.3 6.6 6.5 6.5 6.3 6.2 6.0 5.8 5.8 5.7 5.7 5.7 5.6 5.6 5.5 5.5 5.5 5.5 5.7 5.7 5.8 5.9 5.9 5.9 5.7 5.6 5.6 5.6 5.5 5.4 5.3 5.1 4.8 4.5 4.2 4.0 3.8 3.6 3.3 2.9
7.5 7.2 6.6 6.6 6.6 6.3 6.3 6.1 6.0 5.9 5.7 5.7 5.8 5.7 5.7 5.6 5.5 5.6 5.5 5.6 5.7 5.7 5.8 5.9 5.9 5.9 5.8 5.7 5.7 5.7 5.4 5.4 5.3 5.1 4.9 4.4 4.1 4.0 3.7 3.5 3.2 3.0 3.0
7.1 6.8 6.4 6.3 6.2 6.2 6.0 6.0 5.8 5.8 5.8 5.9 5.8 5.7 5.7 5.6 5.6 5.6 5.6 5.7 5.8 5.7 5.9 5.9 5.8 5.8 5.6 5.6 5.6 5.5 5.4 5.2 5.0 4.8 4.4 4.1 3.9 3.6 3.4 3.2 3.0 3.4 3.1
7.0 6.6 6.2 6.0 6.0 5.9 5.9 5.9 5.9 5.9 5.8 5.8 5.8 5.7 5.6 5.6 5.6 5.6 5.7 5.8 5.6 5.8 5.8 5.8 5.7 5.6 5.6 5.6 5.5 5.4 5.2 5.1 4.8 4.3 4.0 3.7 3.5 3.4 3.3 3.1 2.8 3.0 3.6
6.7 6.5 6.3 6.2 6.1 6.1 6.0 5.9 5.7 5.8 5.8 5.7 5.6 5.6 5.7 5.6 5.6 5.7 5.7 5.6 5.7 5.8 5.9 5.7 5.5 5.6 5.5 5.4 5.4 5.3 5.1 4.8 4.4 4.0 3.7 3.5 3.6 3.3 2.9 2.6 3.2 4.0 4.2
6.7 6.5 6.4 6.4 6.4 6.2 6.0 5.9 5.8 5.7 5.6 5.5 5.6 5.6 5.5 5.6 5.6 5.8 5.6 5.7 5.8 5.8 5.6 5.6 5.6 5.5 5.4 5.3 5.2 5.0 4.7 4.3 3.9 3.6 3.6 3.7 3.5 2.9 2.8 3.7 4.1 4.1 4.4
6.9 6.8 6.7 6.5 6.3 6.2 6.0 5.8 5.6 5.5 5.5 5.6 5.5 5.5 5.7 5.7 5.8 5.6 5.7 5.9 5.7 5.6 5.6 5.6 5.4 5.3 5.2 5.2 4.9 4.6 4.3 3.8 3.5 3.5 3.7 3.6 3.1 3.0 4.0 4.4 4.5 5.0 4.7
7.1 6.9 6.6 6.5 6.2 5.9 5.6 5.4 5.4 5.5 5.5 5.5 5.6 5.7 5.8 5.8 5.6 5.8 5.8 5.7 5.6 5.6 5.4 5.3 5.3 5.2 5.1 4.9 4.5 4.2 3.8 3.5 3.6 3.8 3.8 3.3 3.4 4.3 4.3 4.4 4.8 4.9 4.5
6.8 6.6 6.4 6.0 5.8 5.6 5.5 5.5 5.6 5.5 5.6 5.7 5.8 5.8 5.7 5.7 5.7 5.7 5.6 5.6 5.5 5.3 5.2 5.2 5.2 5.0 4.7 4.5 4.0 3.7 3.5 3.6 3.9 4.1 3.6 3.6 4.1 4.3 4.2 4.4 4.7 4.9 4.7
6.6 6.4 6.3 6.1 5.8 5.7 5.7 5.5 5.5 5.6 5.7 5.8 5.9 5.7 5.7 5.6 5.5 5.5 5.5 5.5 5.3 5.3 5.2 5.0 4.7 4.6 4.3 3.8 3.5 3.5 3.7 4.0 4.0 4.0 4.3 4.4 4.3 4.6 4.6 4.4 4.4 4.6 4.6
6.4 6.3 6.1 5.8 5.7 5.6 5.5 5.6 5.6 5.7 5.7 5.7 5.6 5.6 5.5 5.5 5.5 5.5 5.3 5.2 5.2 5.1 4.9 4.7 4.5 4.1 3.7 3.5 3.5 3.7 3.9 3.9 4.0 4.2 4.6 4.5 4.6 4.7 4.6 4.3 4.2 4.3 4.5
6.4 6.2 6.0 5.8 5.7 5.7 5.6 5.6 5.6 5.6 5.6 5.6 5.5 5.5 5.5 5.5 5.3 5.2 5.1 5.1 5.0 4.8 4.7 4.6 4.1 3.7 3.5 3.5 3.7 3.9 3.9 3.9 4.1 4.7 4.6 4.6 4.6 4.5 4.3 4.1 4.2 4.1 4.5
6.2 6.0 5.9 5.7 5.6 5.6 5.6 5.7 5.7 5.7 5.7 5.6 5.6 5.5 5.3 5.3 5.2 5.0 4.9 4.9 4.7 4.6 4.4 4.0 3.7 3.7 3.6 3.7 3.8 4.0 4.1 4.4 4.5 4.5 4.6 4.6 4.4 4.4 4.3 3.9 4.0 4.2 4.3
6.2 5.8 5.7 5.6 5.6 5.6 5.6 5.6 5.7 5.7 5.6 5.5 5.4 5.3 5.3 5.1 4.9 4.9 4.9 4.7 4.5 4.3 3.9 3.7 3.7 3.6 3.7 3.9 4.0 4.1 4.2 4.4 4.4 4.7 4.7 4.6 4.3 3.9 3.9 4.0 4.0 4.1 4.4
5.8 5.5 5.5 5.5 5.6 5.6 5.7 5.7 5.6 5.5 5.5 5.4 5.4 5.1 4.9 4.8 4.8 4.8 4.6 4.3 4.1 3.8 3.5 3.4 3.5 3.6 3.7 3.7 3.7 3.9 4.5 4.4 4.5 4.6 4.8 4.6 4.3 4.3 4.2 4.2 4.3 4.5 4.6
5.6 5.5 5.5 5.5 5.5 5.6 5.6 5.5 5.5 5.4 5.2 5.1 5.0 4.9 4.8 4.9 4.8 4.6 4.3 4.0 3.7 3.4 3.4 3.4 3.5 3.6 3.7 3.8 4.2 4.7 4.7 4.4 4.5 4.7 4.5 4.2 4.2 4.3 4.5 4.7 4.8 4.7 5.0
Wind_Speed
7 5 7 7 6 4 6 6 9 9 11 9 8 6 6 6 6 6 12 13 12 13 11 5 5 6 6 5 6 3 5 4 6 3 4 4 2 3 3 3 3 4 10
5 5 6 7 7 7 6 7 7 7 6 6 5 4 7 6 6 6 11 13 13 13 10 6 5 6 4 6 5 6 3 3 5 3 1 4 5 3 10 4 3 6 6
11 8 8 7 7 7 7 8 8 9 8 12 11 9 9 7 6 5 6 5 13 13 12 9 5 5 4 4 4 4 6 3 3 5 3 4 3 5 3 4 3 11 4
9 8 8 7 8 7 7 7 8 10 10 13 12 15 9 9 2 4 4 5 12 11 11 10 8 5 3 5 3 4 3 2 3 3 3 1 2 3 5 2 9 3 10
13 13 13 10 6 7 8 7 8 8 7 8 10 10 10 8 6 5 8 7 6 10 10 9 8 5 4 4 6 5 5 3 1 1 2 2 2 2 3 10 7 10 9
11 10 8 9 6 7 8 8 10 7 8 9 8 13 16 12 9 5 6 4 4 4 6 8 7 7 4 5 4 4 5 3 3 1 2 1 1 3 3 7 12 12 9
15 14 15 12 10 11 9 9 11 8 8 10 10 11 12 11 10 7 5 5 3 2 4 4 5 4 4 5 4 4 4 3 2 2 2 1 2 2 4 7 11 9 10
16 19 18 14 12 12 10 11 11 11 9 11 9 8 9 6 5 5 5 4 4 3 3 4 5 5 6 6 5 2 3 2 3 4 2 2 3 3 3 5 8 13 7
17 20 16 13 12 11 11 12 12 10 10 10 9 8 8 8 7 7 6 4 4 4 5 5 4 4 5 5 4 3 4 4 3 4 4 3 3 3 4 5 5 6 11
16 15 15 15 11 11 9 10 11 12 10 10 9 8 8 7 7 6 7 6 5 4 5 4 4 4 4 4 5 4 5 4 4 4 5 4 3 4 4 5 6 6 9
17 16 14 12 13 11 11 11 12 12 10 9 9 9 7 7 6 6 6 5 4 4 4 4 4 5 5 5 5 5 5 5 6 6 5 6 6 5 5 5 6 7 8
16 15 14 13 14 12 11 11 10 10 9 9 9 8 7 7 6 6 6 5 5 4 4 4 5 5 5 6 6 6 6 6 6 7 6 7 7 7 7 6 9 9 11
16 14 13 13 12 12 11 10 9 10 9 9 9 7 7 7 6 6 5 5 4 4 5 5 6 6 5 6 6 6 6 6 6 7 7 8 7 8 8 9 10 9 9
17 15 13 12 11 11 11 10 9 9 9 9 8 7 7 6 6 5 5 5 4 5 5 4 5 5 5 6 6 6 6 6 6 6 6 7 8 9 10 11 11 11 12
15 15 14 12 11 11 10 9 9 9 9 9 8 7 6 6 6 5 5 5 5 4 3 5 5 5 5 5 7 6 6 6 6 6 6 7 12 22 19 12 14 15 12
15 15 14 14 13 13 12 11 10 9 9 8 7 6 6 6 5 5 5 5 4 4 4 5 5 6 5 14 17 14 5 5 6 8 9 7 14 14 24 26 28 23 16
16 16 16 15 13 13 13 12 10 9 8 8 7 6 6 5 5 5 4 3 3 3 4 5 5 6 6 14 17 18 4 5 6 8 10 10 9 17 13 21 28 24 21
15 14 13 12 12 11 11 11 11 9 9 7 7 6 5 5 5 4 3 3 2 3 4 5 6 6 6 15 17 19 6 6 7 8 9 9 12 12 19 17 12 13 12
13 13 13 14 14 14 13 12 10 9 8 7 6 6 5 5 4 3 3 2 2 3 3 4 6 6 7 15 18 16 7 8 7 7 7 10 11 23 29 18 15 15 13
13 15 15 14 14 12 13 13 10 9 8 7 6 5 5 5 4 2 2 2 2 3 4 6 5 9 6 14 18 16 8 9 9 7 8 15 20 29 28 19 15 13 16
16 15 14 14 13 13 13 12 9 8 6 7 6 6 5 4 3 2 2 3 4 4 5 5 6 6 7 8 18 19 10 9 9 9 9 9 26 29 30 27 11 16 18
15 14 14 12 11 12 13 11 9 7 7 7 6 6 4 3 3 4 3 3 4 5 5 6 5 4 5 13 15 20 20 21 11 11 10 12 28 28 26 20 25 27 22
13 11 14 14 9 9 12 11 7 7 7 7 6 5 5 4 4 3 4 4 4 4 5 4 4 5 5 4 16 20 21 21 13 9 19 26 26 24 17 23 25 22 10
12 13 15 13 9 7 7 10 7 7 7 7 6 4 4 3 3 3 3 3 4 4 5 5 6 5 5 5 7 7 8 13 12 15 10 17 19 19 18 14 13 9 9
10 11 13 11 9 8 9 7 7 7 7 6 5 3 3 3 3 2 2 3 4 4 4 4 4 6 7 8 18 16 11 10 15 17 8 9 9 10 10 10 10 10 10
10 11 10 11 8 9 8 6 6 7 6 5 3 2 2 2 2 3 4 5 8 12 13 14 12 7 15 21 23 23 23 25 24 9 8 9 9 10 11 11 11 11 14
Wind_Direction
271 218 186 176 167 160 149 141 126 133 131 129 123 113 115 107 95 88 86 82 83 82 81 73 65 58 63 53 35 18 22 6 353 3 333 326 29 237 346 15 336 8 6
236 193 188 172 175 159 154 133 125 121 117 115 105 110 121 97 95 88 81 85 85 82 80 77 67 58 65 48 44 43 17 2 24 4 318 348 331 351 324 350 358 7 346
208 198 188 191 164 163 157 143 135 124 115 116 111 103 99 99 100 88 87 69 81 80 80 75 76 68 65 59 56 46 51 16 342 28 66 348 307 326 321 324 352 341 325
201 185 173 174 173 169 135 126 129 128 129 134 131 140 138 133 110 121 98 80 77 76 78 76 72 70 67 58 43 46 54 63 24 342 27 268 247 309 316 297 314 306 313
185 179 177 169 158 143 134 123 122 122 121 123 131 120 108 107 116 108 97 87 71 73 74 76 70 68 64 60 55 39 32 42 42 41 326 299 277 263 268 301 310 307 309
177 156 126 124 122 121 120 123 123 110 108 112 111 124 128 132 124 108 102 92 83 68 63 68 69 62 57 50 45 42 34 25 14 339 319 249 305 309 293 297 305 298 305
154 149 148 147 147 141 131 126 127 114 113 112 113 121 125 123 121 123 120 121 101 70 56 60 55 51 51 49 42 34 12 5 346 319 306 308 270 258 291 301 302 303 305
164 161 158 153 148 139 132 126 128 119 115 112 107 106 106 110 103 113 115 106 105 101 81 71 62 51 43 33 26 13 337 343 317 315 286 277 283 278 278 295 305 309 300
166 157 147 144 139 134 132 133 124 115 112 113 111 102 104 105 112 107 101 100 101 108 80 70 59 40 29 17 4 349 328 322 298 291 262 268 265 267 268 275 278 289 308
154 147 142 138 131 123 116 115 120 120 117 111 112 110 107 102 106 103 101 98 93 81 77 62 46 25 9 5 0 335 314 318 305 278 289 282 265 268 260 262 273 271 278
150 140 133 130 123 118 121 118 118 121 117 113 111 108 103 100 99 96 95 94 88 76 65 47 26 12 3 356 347 329 310 320 300 292 283 275 269 270 269 273 271 272 272
140 133 131 130 130 126 125 123 121 121 119 117 110 106 105 103 97 94 93 90 83 64 55 32 21 7 355 345 333 317 309 301 298 288 284 274 283 280 277 270 278 277 279
130 129 131 137 135 131 128 126 125 122 118 115 114 106 104 101 100 100 93 83 74 52 34 29 14 352 342 327 310 294 290 289 287 283 279 283 286 286 288 289 287 280 293
140 138 139 139 136 134 132 128 123 125 121 115 111 110 112 113 111 103 92 76 60 48 27 15 356 346 325 305 295 290 293 290 285 288 287 287 286 288 292 298 302 304 300
144 150 148 144 137 132 131 128 126 126 126 118 114 116 116 112 107 95 81 67 53 38 22 1 348 337 320 321 317 315 303 302 312 302 291 294 303 313 314 312 315 304 300
155 155 150 143 145 144 140 137 135 131 125 120 119 121 116 113 106 94 74 57 36 19 13 354 336 329 332 329 332 333 326 325 307 312 308 292 303 303 311 310 308 302 303
160 159 158 154 150 148 146 144 138 129 121 122 125 125 125 116 104 81 65 43 15 3 346 336 335 324 319 322 328 328 320 301 298 298 302 302 304 308 295 294 299 305 307
157 154 149 142 141 136 130 128 132 128 127 125 126 126 122 113 92 79 49 9 2 341 333 324 326 321 310 322 326 327 311 295 280 282 286 288 294 295 308 311 319 312 304
150 148 144 140 136 137 137 130 126 126 126 131 128 126 117 115 103 68 20 338 349 335 327 311 318 316 301 321 329 331 316 303 285 280 289 291 304 308 317 321 317 315 310
137 134 132 132 133 138 135 132 134 132 133 136 127 120 122 109 95 77 9 344 347 320 322 318 311 311 308 315 330 330 318 312 310 308 286 313 319 318 322 326 322 319 307
129 127 131 136 135 133 130 127 131 135 125 119 120 113 102 107 92 63 24 352 334 330 330 311 298 296 302 308 328 329 323 313 320 324 324 319 316 325 328 324 329 303 318
123 123 120 120 124 127 125 129 127 129 123 119 110 105 95 70 61 44 9 352 351 337 320 310 302 300 299 315 326 326 324 326 327 324 319 309 322 327 326 327 315 323 330
117 117 121 117 110 119 133 127 142 128 118 109 112 101 86 69 44 29 2 353 346 325 306 301 310 309 309 290 308 317 321 328 324 319 313 328 324 325 326 318 323 325 317
117 125 122 120 111 104 101 121 126 121 118 116 106 91 80 68 30 19 5 337 320 313 310 315 316 304 307 306 305 310 317 323 318 318 324 325 323 320 318 319 316 314 314
114 118 120 120 115 109 108 114 122 120 111 110 113 91 82 43 9 353 279 300 275 289 315 297 295 312 320 315 328 329 328 328 330 333 331 322 322 321 319 318 316 316 315
111 104 105 114 113 111 111 113 112 113 119 111 106 86 56 16 347 326 313 300 320 328 328 328 328 321 320 327 331 327 335 334 334 333 321 320 319 317 317 316 315 315 316